Washington, PA

6:00 PM EST on December 07, 2016 (GMT -0500)
Washington County

Weather History for KAFJ - February, 2014

Change the Weather History Date:

Wednesday, February 19, 2014

  Actual Average Record
Temperature  
Mean Temperature 37 °F -  
Max Temperature 48 °F 39 °F 59 °F (2016)
Min Temperature 24 °F 23 °F -5 °F (2015)
Degree Days  
Heating Degree Days 28    
Moisture  
Dew Point 31 °F    
Average Humidity 72    
Maximum Humidity 93    
Minimum Humidity 48    
Precipitation  
Precipitation 0.14 in - - ()
Sea Level Pressure  
Sea Level Pressure 29.88 in    
Wind  
Wind Speed 7 mph (SW)    
Max Wind Speed 23 mph    
Max Gust Speed 36 mph    
Visibility 10 miles    
Events      
Averages and records for this station are not official NWS values.
T = Trace of Precipitation, MM = Missing Value Source: NWS Daily Summary

Daily Weather History Graph

Daily Weather History Graph

Search for Another Location

Airport or City:

Trip Planner

Search our weather history database for the weather conditions in past years. The results will help you decide how hot, cold, wet, or windy it might be!

Date:

Astronomy

Feb. 19, 2014 Rise Set
Actual Time 7:08 AM EST 6:01 PM EST
Civil Twilight 6:41 AM EST 6:29 PM EST
Nautical Twilight 6:09 AM EST 7:00 PM EST
Astronomical Twilight 5:38 AM EST 7:32 PM EST
Moon 10:53 PM EST (2/19) 9:13 AM EST (2/19)
Length of Visible Light 11h 47m
Length of Day
10h 52m
Waning Gibbous, 80% of the Moon is Illuminated
Feb 19
Waning Gibbous
Feb 22
Last Quarter
Mar 1
New
Mar 8
First Quarter
Mar 16
Full

Hourly Weather History & Observations

Time (EST) Temp. Windchill Dew Point Humidity Pressure Visibility Wind Dir Wind Speed Gust Speed Precip Events Conditions
12:15 AM 32.0 °F 27.5 °F 19.4 °F 60% 29.89 in 10.0 mi SSW 4.6 mph - N/A   Clear
12:35 AM 33.8 °F 30.8 °F 19.4 °F 56% 29.88 in 10.0 mi South 3.5 mph - N/A   Clear
12:55 AM 32.0 °F 28.7 °F 17.6 °F 55% 29.87 in 10.0 mi South 3.5 mph - N/A   Clear
1:15 AM 28.4 °F 23.3 °F 21.2 °F 74% 29.87 in 10.0 mi South 4.6 mph - N/A   Clear
1:35 AM 32.0 °F 27.5 °F 19.4 °F 60% 29.85 in 10.0 mi South 4.6 mph - N/A   Clear
1:55 AM 35.6 °F 29.9 °F 19.4 °F 52% 29.84 in 10.0 mi South 6.9 mph - N/A   Clear
2:15 AM 37.4 °F 32.8 °F 19.4 °F 48% 29.83 in 10.0 mi South 5.8 mph - N/A   Scattered Clouds
2:35 AM 37.4 °F 34.9 °F 19.4 °F 48% 29.81 in 10.0 mi South 3.5 mph - N/A   Mostly Cloudy
2:55 AM 35.6 °F 31.7 °F 19.4 °F 52% 29.80 in 10.0 mi South 4.6 mph - N/A   Mostly Cloudy
3:15 AM 37.4 °F 33.8 °F 19.4 °F 48% 29.77 in 10.0 mi South 4.6 mph - N/A   Mostly Cloudy
3:35 AM 39.2 °F 35.9 °F 21.2 °F 49% 29.75 in 10.0 mi South 4.6 mph - N/A   Mostly Cloudy
3:55 AM 39.2 °F 35.9 °F 28.4 °F 65% 29.79 in 8.0 mi WSW 4.6 mph 26.5 mph N/A   Mostly Cloudy
4:15 AM 39.2 °F 37.0 °F 28.4 °F 65% 29.77 in 10.0 mi South 3.5 mph - 0.01 in   Overcast
4:35 AM 35.6 °F 32.8 °F 32.0 °F 87% 29.78 in 9.0 mi WSW 3.5 mph - 0.04 in   Overcast
4:55 AM 35.6 °F 31.7 °F 33.8 °F 93% 29.78 in 7.0 mi South 4.6 mph - 0.06 in   Overcast
5:15 AM 37.4 °F 34.9 °F 33.8 °F 87% 29.78 in 10.0 mi SSW 3.5 mph - 0.03 in   Overcast
5:35 AM 37.4 °F 34.9 °F 35.6 °F 93% 29.77 in 10.0 mi SSW 3.5 mph - 0.06 in   Overcast
5:55 AM 37.4 °F 34.9 °F 35.6 °F 93% 29.76 in 10.0 mi SSW 3.5 mph - 0.07 in   Overcast
6:15 AM 39.2 °F - 37.4 °F 93% 29.74 in 10.0 mi Calm Calm - N/A   Overcast
6:35 AM 39.2 °F 35.9 °F 35.6 °F 87% 29.74 in 10.0 mi South 4.6 mph - 0.01 in   Overcast
6:55 AM 39.2 °F 34.2 °F 37.4 °F 93% 29.72 in 10.0 mi SSE 6.9 mph - 0.01 in   Overcast
7:15 AM 41.0 °F 36.4 °F 39.2 °F 93% 29.73 in 10.0 mi SSW 6.9 mph - N/A   Overcast
7:35 AM 39.2 °F 35.0 °F 37.4 °F 93% 29.74 in 10.0 mi SSW 5.8 mph - N/A   Mostly Cloudy
7:55 AM 41.0 °F 37.1 °F 39.2 °F 93% 29.74 in 10.0 mi SSW 5.8 mph - N/A   Overcast
8:15 AM 42.8 °F 38.6 °F 39.2 °F 87% 29.72 in 10.0 mi South 6.9 mph - N/A   Mostly Cloudy
8:35 AM 42.8 °F 39.3 °F 39.2 °F 87% 29.72 in 10.0 mi SSW 5.8 mph - N/A   Partly Cloudy
8:55 AM 42.8 °F 39.3 °F 39.2 °F 87% 29.73 in 10.0 mi SSW 5.8 mph - N/A   Scattered Clouds
9:15 AM 42.8 °F 39.3 °F 39.2 °F 87% 29.73 in 10.0 mi SSW 5.8 mph - N/A   Mostly Cloudy
9:35 AM 42.8 °F 39.3 °F 39.2 °F 87% 29.73 in 10.0 mi SSW 5.8 mph - N/A   Overcast
9:55 AM 44.6 °F 40.2 °F 41.0 °F 87% 29.73 in 10.0 mi SW 8.1 mph - N/A   Overcast
10:15 AM 46.4 °F 41.1 °F 41.0 °F 81% 29.74 in 10.0 mi SW 11.5 mph 16.1 mph N/A   Overcast
10:35 AM 46.4 °F 40.7 °F 41.0 °F 81% 29.73 in 10.0 mi SW 12.7 mph - N/A   Overcast
10:55 AM 46.4 °F 40.4 °F 41.0 °F 81% 29.73 in 10.0 mi SW 13.8 mph - N/A   Overcast
11:15 AM 46.4 °F 40.4 °F 41.0 °F 81% 29.74 in 10.0 mi SW 13.8 mph 18.4 mph N/A   Overcast
11:35 AM 46.4 °F 40.7 °F 41.0 °F 81% 29.74 in 10.0 mi SW 12.7 mph - N/A   Overcast
11:55 AM 46.4 °F 40.4 °F 41.0 °F 81% 29.76 in 10.0 mi WSW 13.8 mph 18.4 mph N/A   Overcast
12:15 PM 46.4 °F 41.1 °F 41.0 °F 81% 29.74 in 10.0 mi SW 11.5 mph 16.1 mph N/A   Overcast
12:35 PM 48.2 °F - 39.2 °F 71% 29.74 in 10.0 mi SW 15.0 mph 21.9 mph N/A   Overcast
12:55 PM 48.2 °F - 39.2 °F 71% 29.75 in 10.0 mi WSW 16.1 mph 26.5 mph N/A   Overcast
1:15 PM 48.2 °F - 37.4 °F 66% 29.75 in 10.0 mi West 16.1 mph 23.0 mph N/A   Mostly Cloudy
1:35 PM 48.2 °F - 35.6 °F 62% 29.76 in 10.0 mi WSW 23.0 mph 35.7 mph N/A   Scattered Clouds
1:55 PM 48.2 °F - 32.0 °F 54% 29.78 in 10.0 mi WSW 21.9 mph 33.4 mph N/A   Scattered Clouds
2:15 PM 48.2 °F - 33.8 °F 58% 29.80 in 10.0 mi WSW 19.6 mph 28.8 mph N/A   Mostly Cloudy
2:35 PM 48.2 °F - 32.0 °F 54% 29.81 in 10.0 mi West 19.6 mph 29.9 mph N/A   Mostly Cloudy
2:55 PM 48.2 °F - 30.2 °F 50% 29.83 in 10.0 mi West 17.3 mph 27.6 mph N/A   Scattered Clouds
3:15 PM 46.4 °F 38.7 °F 28.4 °F 50% 29.86 in 10.0 mi West 20.7 mph 35.7 mph N/A   Partly Cloudy
3:35 PM 46.4 °F 38.7 °F 28.4 °F 50% 29.89 in 10.0 mi West 20.7 mph 32.2 mph N/A   Clear
3:55 PM 46.4 °F 41.9 °F 28.4 °F 50% 29.91 in 10.0 mi West 9.2 mph 21.9 mph N/A   Scattered Clouds
4:15 PM 46.4 °F 39.2 °F 28.4 °F 50% 29.93 in 10.0 mi West 18.4 mph 25.3 mph N/A   Scattered Clouds
4:35 PM 44.6 °F 37.8 °F 28.4 °F 53% 29.95 in 10.0 mi West 15.0 mph 28.8 mph N/A   Partly Cloudy
4:55 PM 44.6 °F 38.4 °F 28.4 °F 53% 29.97 in 10.0 mi West 12.7 mph 23.0 mph N/A   Mostly Cloudy
5:15 PM 44.6 °F 38.1 °F 28.4 °F 53% 29.99 in 10.0 mi West 13.8 mph 18.4 mph N/A   Mostly Cloudy
5:35 PM 42.8 °F 37.0 °F 28.4 °F 57% 30.00 in 10.0 mi West 10.4 mph - N/A   Partly Cloudy
5:55 PM 42.8 °F 37.0 °F 28.4 °F 57% 30.02 in 10.0 mi West 10.4 mph 20.7 mph N/A   Scattered Clouds
6:15 PM 42.8 °F 37.5 °F 28.4 °F 57% 30.04 in 10.0 mi West 9.2 mph 18.4 mph N/A   Partly Cloudy
6:35 PM 41.0 °F 36.4 °F 28.4 °F 61% 30.07 in 10.0 mi West 6.9 mph - N/A   Clear
6:55 PM 41.0 °F 34.7 °F 28.4 °F 61% 30.09 in 10.0 mi West 10.4 mph - N/A   Clear
7:15 PM 39.2 °F 33.0 °F 28.4 °F 65% 30.10 in 10.0 mi West 9.2 mph - N/A   Clear
7:35 PM 39.2 °F 35.0 °F 28.4 °F 65% 30.12 in 10.0 mi WSW 5.8 mph - N/A   Clear
7:55 PM 37.4 °F 34.9 °F 28.4 °F 70% 30.13 in 10.0 mi SW 3.5 mph - N/A   Clear
8:15 PM 35.6 °F 32.8 °F 26.6 °F 70% 30.14 in 10.0 mi SW 3.5 mph - N/A   Clear
8:35 PM 33.8 °F - 26.6 °F 75% 30.14 in 10.0 mi Calm Calm - N/A   Clear
8:55 PM 32.0 °F - 26.6 °F 80% 30.14 in 10.0 mi Calm Calm - N/A   Clear
9:15 PM 30.2 °F - 26.6 °F 86% 30.14 in 10.0 mi Calm Calm - N/A   Clear
9:35 PM 28.4 °F - 26.6 °F 93% 30.14 in 10.0 mi Calm Calm - N/A   Clear
9:55 PM 30.2 °F - 26.6 °F 86% 30.14 in 10.0 mi Calm Calm - N/A   Clear
10:15 PM 28.4 °F - 24.8 °F 86% 30.14 in 9.0 mi Calm Calm - N/A   Clear
10:35 PM 28.4 °F - 24.8 °F 86% 30.14 in 7.0 mi Calm Calm - N/A   Clear
10:55 PM 26.6 °F - 23.0 °F 86% 30.13 in 6.0 mi Calm Calm - N/A   Clear
11:15 PM 26.6 °F - 23.0 °F 86% 30.12 in 5.0 mi Calm Calm - N/A   Clear
11:35 PM 26.6 °F - 24.8 °F 93% 30.11 in 5.0 mi Calm Calm - N/A   Clear
11:55 PM 24.8 °F - 23.0 °F 93% 30.10 in 2.0 mi Calm Calm - N/A   Clear